Tracking 29892 objects as of 21-Nov-2024
HD Live streaming from Space Station
objects crossing your sky now

ARIANE 5 R/B

Track ARIANE 5 R/B now!


NORAD ID: 27946
Int'l Code: 2003-043B
Perigee: 610.2 km
Apogee: 36,062.4 km
Inclination: 7.2 °
Period: 644.2 minutes
Semi major axis: 24707 km
RCS: 26.85 m2 (large)
Launch date: September 27, 2003
Source: France (FR)
Launch site: FRENCH GUIANA (FRGUI)

Note: This is a ROCKET BODY
Your satellite tracking list
Your tracking list is empty




NASA's NSSDC Master Catalog

Two Line Element Set (TLE):
1 27946U 03043B   24325.81568223 -.00000039  00000-0  17602-2 0  9990
2 27946   7.2446 184.2224 7174453  42.3950 354.8695  2.23545529172782
Source of the keplerian elements: AFSPC